Location: Most
(50.5133°N, 13.6207°E)
Time: 16:09:28
(UTC+02:00)

Nauka - Pass Details

Date: 27 September 2021
Orbit: 417 x 423 km, 51.6° (Epoch: 26 October)

Event Time Altitude Azimuth Distance (km) Brightness Sun altitude
Rises 20:11:30 0° 279° (W) 2,365 ? -13.3°
Reaches altitude 10° 20:13:36 10° 281° (W) 1,501 ? -13.7°
Maximum altitude 20:16:59 75° 7° (N) 438 ? -14.2°
Enters shadow 20:18:32 29° 89° (E) 794 ? -14.4°
